Volver al catálogo

STARLINK-31460

ActivoComunicacionesVLEO
NORAD 59008·PAYLOAD·🇺🇸 United States

Lanzado Feb 23, 2024 desde Vandenberg Space Force Base

Loading…

Próximos Pases (próximas 24 horas)

TLE

ActualizadoSource: CelesTrak SupGP

Época: Sep 14, 2026, 22:31 UTC

1 59008C 24036L   26257.93868056  .00053443  00000+0  15792-2 0  2575
2 59008  53.1560 277.4440 0001321  97.5543 180.4686 15.34359411    12

Sigue STARLINK-31460 en tiempo real con AllMySat

Download on the App Store